Location: Unspecified
(44.0704°N, 88.6889°W)
Time: 14:23:40
(UTC+01:00)

Okean 3 - Pass Details

Date: 09 October 2020
Orbit: 575 x 602 km, 82.5° (Epoch: 26 October)

Event Time Altitude Azimuth Distance (km) Brightness Sun altitude
Exits shadow 11:30:52 43° 35° (NE) 837 4.5 -27.7°
Drops below altitude 10° 11:33:53 10° 15° (NNE) 1,924 6.5 -27.2°
Sets 11:36:05 0° 12° (NNE) 2,825 7.3 -26.8°
